FLOCK 2E'-20

Last updated on Sun Sep 23 2018 00:00:43 GMT+0000 (Coordinated Universal Time)

1 41782U 98067KQ 18265.14821570 .12437954 12466-4 39039-3 0 9997 2 41782 51.6068 177.2170 0008494 248.1587 111.8538 16.44321266115464

Satellite not in orbit